| time (UTC) | temp F | wind direction | speed MPH | gust MPH | rain 1hr in | rain 24hr in | rain mn in | humidity % | barometer mb |
| 20260901213012 | 55 | 300 | 1.0 | 5.0 | 0.00 | 0.00 | 0.00 | 81 | 1014.2 |
| 20260901211852 | 55 | 309 | 1.0 | 7.0 | 0.00 | 0.00 | 0.00 | 82 | 1014.0 |
| 20260901211401 | 55 | 321 | 1.0 | 7.0 | 0.00 | 0.00 | 0.00 | 82 | 1014.0 |
| 20260901210903 | 55 | 284 | 1.0 | 7.0 | 0.00 | 0.00 | 0.00 | 82 | 1014.0 |
| 20260901210351 | 55 | 61 | 1.0 | 7.0 | 0.00 | 0.00 | 0.00 | 82 | 1014.0 |
| 20260901205841 | 55 | 278 | 1.0 | 7.0 | 0.00 | 0.00 | 0.00 | 83 | 1013.9 |
| 20260901205333 | 55 | 300 | 1.0 | 5.0 | 0.00 | 0.00 | 0.00 | 83 | 1014.0 |
| 20260901204843 | 55 | 202 | 0.0 | 4.0 | 0.00 | 0.00 | 0.00 | 84 | 1013.9 |
| 20260901204350 | 55 | 137 | 1.0 | 3.0 | 0.00 | 0.00 | 0.00 | 84 | 1013.8 |
| 20260901203856 | 55 | 281 | 1.0 | 4.0 | 0.00 | 0.00 | 0.00 | 84 | 1013.8 |
| 20260901203352 | 55 | 296 | 0.0 | 4.0 | 0.00 | 0.00 | 0.00 | 84 | 1013.7 |
| 20260901202848 | 55 | 336 | 0.0 | 5.0 | 0.00 | 0.00 | 0.00 | 84 | 1013.6 |
| 20260901202337 | 55 | 133 | 1.0 | 5.0 | 0.00 | 0.00 | 0.00 | 84 | 1013.5 |
| 20260901201827 | 55 | 277 | 1.0 | 5.0 | 0.00 | 0.00 | 0.00 | 85 | 1013.5 |
| 20260901201319 | 55 | 268 | 0.0 | 5.0 | 0.00 | 0.00 | 0.00 | 85 | 1013.4 |
| 20260901200803 | 55 | 256 | 0.0 | 3.0 | 0.00 | 0.00 | 0.00 | 85 | 1013.3 |
| 20260901200250 | 55 | 290 | 0.0 | 4.0 | 0.00 | 0.00 | 0.00 | 84 | 1013.2 |
| 20260901195740 | 55 | 227 | 0.0 | 4.0 | 0.00 | 0.00 | 0.00 | 84 | 1013.2 |
| 20260901194619 | 55 | 300 | 1.0 | 4.0 | 0.00 | 0.00 | 0.00 | 84 | 1013.2 |
| 20260901194127 | 55 | 285 | 0.0 | 4.0 | 0.00 | 0.00 | 0.00 | 85 | 1013.1 |
| 20260901193616 | 55 | 283 | 0.0 | 4.0 | 0.00 | 0.00 | 0.00 | 84 | 1013.1 |
| 20260901193116 | 55 | 297 | 0.0 | 4.0 | 0.00 | 0.00 | 0.00 | 84 | 1013.1 |
| 20260901192557 | 56 | 294 | 0.0 | 4.0 | 0.00 | 0.00 | 0.00 | 85 | 1013.1 |
| 20260901191426 | 56 | 304 | 0.0 | 5.0 | 0.00 | 0.00 | 0.00 | 84 | 1012.9 |
| 20260901190925 | 56 | 259 | 1.0 | 5.0 | 0.00 | 0.00 | 0.00 | 84 | 1012.7 |
| 20260901190420 | 56 | 299 | 1.0 | 5.0 | 0.00 | 0.00 | 0.00 | 84 | 1012.8 |
| 20260901185321 | 56 | 324 | 1.0 | 6.0 | 0.00 | 0.00 | 0.00 | 84 | 1012.6 |
| 20260901184813 | 56 | 314 | 1.0 | 6.0 | 0.00 | 0.00 | 0.00 | 84 | 1012.5 |
| 20260901184307 | 56 | 314 | 1.0 | 6.0 | 0.00 | 0.00 | 0.00 | 84 | 1012.5 |
| 20260901183804 | 56 | 250 | 1.0 | 6.0 | 0.00 | 0.00 | 0.00 | 84 | 1012.4 |
| 20260901183305 | 56 | 262 | 1.0 | 5.0 | 0.00 | 0.00 | 0.00 | 85 | 1012.4 |
| 20260901182752 | 56 | 274 | 1.0 | 5.0 | 0.00 | 0.00 | 0.00 | 84 | 1012.4 |
| 20260901182233 | 56 | 44 | 0.0 | 5.0 | 0.00 | 0.00 | 0.00 | 84 | 1012.3 |
| 20260901181741 | 57 | 316 | 0.0 | 5.0 | 0.00 | 0.00 | 0.00 | 85 | 1012.2 |
| 20260901181236 | 57 | 40 | 0.0 | 5.0 | 0.00 | 0.00 | 0.00 | 85 | 1012.1 |
| 20260901180123 | 58 | 75 | 0.0 | 5.0 | 0.00 | 0.00 | 0.00 | 84 | 1012.0 |
| 20260901175608 | 58 | 283 | 1.0 | 7.0 | 0.00 | 0.00 | 0.00 | 83 | 1011.8 |
| 20260901174441 | 59 | 98 | 2.0 | 7.0 | 0.00 | 0.00 | 0.00 | 80 | 1011.8 |
| 20260901173329 | 61 | 67 | 1.0 | 5.0 | 0.00 | 0.00 | 0.00 | 78 | 1011.6 |
| 20260901172830 | 61 | 324 | 1.0 | 5.0 | 0.00 | 0.00 | 0.00 | 78 | 1011.3 |
| 20260901172319 | 61 | 321 | 0.0 | 5.0 | 0.00 | 0.00 | 0.00 | 78 | 1011.2 |
| 20260901171815 | 60 | 289 | 0.0 | 5.0 | 0.00 | 0.00 | 0.00 | 78 | 1011.2 |
| 20260901171307 | 60 | 285 | 0.0 | 5.0 | 0.00 | 0.00 | 0.00 | 78 | 1011.2 |
| 20260901170138 | 60 | 321 | 0.0 | 5.0 | 0.00 | 0.00 | 0.00 | 78 | 1011.2 |
| 20260901165626 | 61 | 347 | 0.0 | 5.0 | 0.00 | 0.00 | 0.00 | 78 | 1011.2 |
| 20260901165114 | 61 | 328 | 1.0 | 4.0 | 0.00 | 0.00 | 0.00 | 78 | 1011.3 |
| 20260901164605 | 61 | 297 | 0.0 | 4.0 | 0.00 | 0.00 | 0.00 | 77 | 1011.5 |
| 20260901164111 | 61 | 297 | 0.0 | 4.0 | 0.00 | 0.00 | 0.00 | 77 | 1011.5 |
| 20260901162947 | 61 | 336 | 0.0 | 7.0 | 0.00 | 0.00 | 0.00 | 77 | 1011.5 |
| 20260901162435 | 61 | 335 | 0.0 | 7.0 | 0.00 | 0.00 | 0.00 | 77 | 1011.6 |
| 20260901161929 | 61 | 0 | 0.0 | 7.0 | 0.00 | 0.00 | 0.00 | 77 | 1011.6 |
| 20260901161437 | 61 | 261 | 0.0 | 7.0 | 0.00 | 0.00 | 0.00 | 77 | 1011.6 |
| 20260901160926 | 61 | 350 | 0.0 | 4.0 | 0.00 | 0.00 | 0.00 | 77 | 1011.6 |
| 20260901155756 | 61 | 314 | 1.0 | 4.0 | 0.00 | 0.00 | 0.00 | 77 | 1011.7 |
| 20260901155306 | 61 | 340 | 0.0 | 3.0 | 0.00 | 0.00 | 0.00 | 77 | 1011.6 |
| 20260901154814 | 61 | 340 | 0.0 | 3.0 | 0.00 | 0.00 | 0.00 | 77 | 1011.6 |
| 20260901154306 | 61 | 323 | 0.0 | 3.0 | 0.00 | 0.00 | 0.00 | 76 | 1011.6 |
| 20260901153815 | 61 | 313 | 1.0 | 5.0 | 0.00 | 0.00 | 0.00 | 76 | 1011.6 |
| 20260901153256 | 61 | 311 | 1.0 | 5.0 | 0.00 | 0.00 | 0.00 | 76 | 1011.6 |
| 20260901152802 | 61 | 307 | 0.0 | 5.0 | 0.00 | 0.00 | 0.00 | 76 | 1011.5 |
| 20260901152250 | 61 | 4 | 0.0 | 5.0 | 0.00 | 0.00 | 0.00 | 76 | 1011.6 |
| 20260901151735 | 61 | 16 | 0.0 | 6.0 | 0.00 | 0.00 | 0.00 | 76 | 1011.6 |
| 20260901151228 | 61 | 321 | 0.0 | 6.0 | 0.00 | 0.00 | 0.00 | 76 | 1011.6 |
| 20260901150721 | 61 | 302 | 0.0 | 7.0 | 0.00 | 0.00 | 0.00 | 76 | 1011.5 |
| 20260901150211 | 61 | 295 | 0.0 | 7.0 | 0.00 | 0.00 | 0.00 | 76 | 1011.5 |
| 20260901145032 | 61 | 266 | 0.0 | 7.0 | 0.00 | 0.00 | 0.00 | 76 | 1011.6 |
| 20260901144514 | 61 | 102 | 1.0 | 5.0 | 0.00 | 0.00 | 0.00 | 76 | 1011.5 |
| 20260901144002 | 61 | 314 | 0.0 | 5.0 | 0.00 | 0.00 | 0.00 | 77 | 1011.6 |
| 20260901142842 | 61 | 294 | 1.0 | 5.0 | 0.00 | 0.00 | 0.00 | 77 | 1011.6 |
| 20260901142344 | 61 | 286 | 1.0 | 8.0 | 0.00 | 0.00 | 0.00 | 77 | 1011.6 |
| 20260901141833 | 61 | 286 | 2.0 | 8.0 | 0.00 | 0.00 | 0.00 | 76 | 1011.6 |
| 20260901141320 | 62 | 296 | 2.0 | 8.0 | 0.00 | 0.00 | 0.00 | 75 | 1011.6 |
| 20260901140820 | 62 | 275 | 2.0 | 8.0 | 0.00 | 0.00 | 0.00 | 75 | 1011.6 |
| 20260901140314 | 62 | 320 | 1.0 | 8.0 | 0.00 | 0.00 | 0.00 | 75 | 1011.6 |
| 20260901135810 | 62 | 296 | 2.0 | 8.0 | 0.00 | 0.00 | 0.00 | 74 | 1011.7 |
| 20260901135316 | 62 | 295 | 2.0 | 8.0 | 0.00 | 0.00 | 0.00 | 74 | 1011.7 |
| 20260901134801 | 62 | 228 | 1.0 | 6.0 | 0.00 | 0.00 | 0.00 | 74 | 1011.7 |
| 20260901134248 | 63 | 9 | 1.0 | 5.0 | 0.00 | 0.00 | 0.00 | 72 | 1011.7 |
| 20260901133734 | 63 | 9 | 1.0 | 5.0 | 0.00 | 0.00 | 0.00 | 72 | 1011.7 |
| 20260901133231 | 63 | 283 | 1.0 | 8.0 | 0.00 | 0.00 | 0.00 | 72 | 1011.7 |
| 20260901132113 | 63 | 250 | 1.0 | 8.0 | 0.00 | 0.00 | 0.00 | 72 | 1011.7 |
| 20260901131557 | 63 | 264 | 1.0 | 8.0 | 0.00 | 0.00 | 0.00 | 71 | 1011.7 |
| 20260901131053 | 63 | 333 | 2.0 | 8.0 | 0.00 | 0.00 | 0.00 | 71 | 1011.7 |
| 20260901125928 | 64 | 344 | 2.0 | 10.0 | 0.00 | 0.00 | 0.00 | 70 | 1011.9 |
| 20260901125425 | 64 | 15 | 2.0 | 10.0 | 0.00 | 0.00 | 0.00 | 70 | 1011.9 |
| 20260901124250 | 64 | 329 | 3.0 | 10.0 | 0.00 | 0.00 | 0.00 | 70 | 1011.8 |
| 20260901123151 | 64 | 340 | 3.0 | 15.0 | 0.00 | 0.00 | 0.00 | 69 | 1011.7 |
| 20260901122701 | 64 | 307 | 4.0 | 15.0 | 0.00 | 0.00 | 0.00 | 69 | 1011.6 |
| 20260901122157 | 64 | 13 | 4.0 | 15.0 | 0.00 | 0.00 | 0.00 | 69 | 1011.6 |
| 20260901121659 | 64 | 288 | 4.0 | 15.0 | 0.00 | 0.00 | 0.00 | 69 | 1011.6 |
| 20260901121151 | 64 | 304 | 4.0 | 13.0 | 0.00 | 0.00 | 0.00 | 70 | 1011.6 |
| 20260901120655 | 64 | 333 | 4.0 | 13.0 | 0.00 | 0.00 | 0.00 | 70 | 1011.6 |
| 20260901120138 | 64 | 319 | 5.0 | 13.0 | 0.00 | 0.00 | 0.00 | 69 | 1011.6 |
| 20260901115637 | 65 | 11 | 5.0 | 13.0 | 0.00 | 0.00 | 0.00 | 69 | 1011.4 |
| 20260901115118 | 65 | 5 | 4.0 | 13.0 | 0.00 | 0.00 | 0.00 | 67 | 1011.4 |
| 20260901114619 | 65 | 297 | 4.0 | 12.0 | 0.00 | 0.00 | 0.00 | 66 | 1011.4 |
| 20260901114124 | 65 | 350 | 3.0 | 9.0 | 0.00 | 0.00 | 0.00 | 66 | 1011.5 |
| 20260901113607 | 65 | 293 | 3.0 | 9.0 | 0.00 | 0.00 | 0.00 | 66 | 1011.5 |
| 20260901112458 | 65 | 267 | 3.0 | 9.0 | 0.00 | 0.00 | 0.00 | 66 | 1011.5 |
| 20260901111957 | 65 | 18 | 3.0 | 10.0 | 0.00 | 0.00 | 0.00 | 66 | 1011.6 |
| 20260901111450 | 65 | 0 | 2.0 | 10.0 | 0.00 | 0.00 | 0.00 | 66 | 1011.6 |
| 20260901110321 | 66 | 44 | 3.0 | 10.0 | 0.00 | 0.00 | 0.00 | 65 | 1011.5 |
| 20260901105807 | 66 | 356 | 2.0 | 9.0 | 0.00 | 0.00 | 0.00 | 65 | 1011.3 |
| 20260901105253 | 65 | 62 | 2.0 | 13.0 | 0.00 | 0.00 | 0.00 | 66 | 1011.2 |
| 20260901104739 | 65 | 284 | 3.0 | 13.0 | 0.00 | 0.00 | 0.00 | 66 | 1011.1 |
| 20260901104232 | 66 | 276 | 4.0 | 13.0 | 0.00 | 0.00 | 0.00 | 66 | 1011.3 |
| 20260901103109 | 66 | 295 | 4.0 | 12.0 | 0.00 | 0.00 | 0.00 | 63 | 1011.2 |
| 20260901102555 | 66 | 319 | 4.0 | 12.0 | 0.00 | 0.00 | 0.00 | 63 | 1011.1 |
| 20260901102045 | 67 | 341 | 4.0 | 13.0 | 0.00 | 0.00 | 0.00 | 62 | 1011.3 |
| 20260901100912 | 67 | 321 | 4.0 | 13.0 | 0.00 | 0.00 | 0.00 | 61 | 1011.5 |
| 20260901100423 | 67 | 310 | 4.0 | 13.0 | 0.00 | 0.00 | 0.00 | 60 | 1011.4 |
| 20260901095904 | 67 | 5 | 2.0 | 12.0 | 0.00 | 0.00 | 0.00 | 59 | 1011.2 |
| 20260901095412 | 68 | 11 | 2.0 | 10.0 | 0.00 | 0.00 | 0.00 | 58 | 1011.2 |
| 20260901094900 | 68 | 324 | 3.0 | 10.0 | 0.00 | 0.00 | 0.00 | 58 | 1011.4 |
| 20260901094409 | 68 | 54 | 4.0 | 12.0 | 0.00 | 0.00 | 0.00 | 58 | 1011.4 |
| 20260901093916 | 68 | 334 | 4.0 | 12.0 | 0.00 | 0.00 | 0.00 | 58 | 1011.3 |
| 20260901092738 | 68 | 328 | 4.0 | 14.0 | 0.00 | 0.00 | 0.00 | 57 | 1011.3 |
| 20260901092219 | 68 | 312 | 5.0 | 14.0 | 0.00 | 0.00 | 0.00 | 56 | 1011.3 |
| 20260901091116 | 68 | 319 | 4.0 | 12.0 | 0.00 | 0.00 | 0.00 | 56 | 1011.3 |
| 20260901090613 | 68 | 22 | 4.0 | 12.0 | 0.00 | 0.00 | 0.00 | 56 | 1011.4 |
| 20260901090123 | 68 | 307 | 4.0 | 12.0 | 0.00 | 0.00 | 0.00 | 56 | 1011.4 |
| 20260901085604 | 68 | 312 | 4.0 | 10.0 | 0.00 | 0.00 | 0.00 | 56 | 1011.5 |
| 20260901085049 | 68 | 6 | 3.0 | 10.0 | 0.00 | 0.00 | 0.00 | 56 | 1011.5 |
| 20260901084530 | 68 | 11 | 1.0 | 9.0 | 0.00 | 0.00 | 0.00 | 55 | 1011.5 |
| 20260901084015 | 68 | 322 | 0.0 | 9.0 | 0.00 | 0.00 | 0.00 | 55 | 1011.5 |
| 20260901083509 | 68 | 339 | 1.0 | 9.0 | 0.00 | 0.00 | 0.00 | 56 | 1011.7 |
| 20260901082350 | 69 | 238 | 3.0 | 12.0 | 0.00 | 0.00 | 0.00 | 55 | 1011.9 |
| 20260901081235 | 69 | 13 | 3.0 | 12.0 | 0.00 | 0.00 | 0.00 | 55 | 1012.0 |
| 20260901080718 | 69 | 328 | 3.0 | 12.0 | 0.00 | 0.00 | 0.00 | 55 | 1012.1 |
| 20260901080217 | 69 | 347 | 3.0 | 12.0 | 0.00 | 0.00 | 0.00 | 54 | 1012.1 |
| 20260901075713 | 69 | 287 | 2.0 | 10.0 | 0.00 | 0.00 | 0.00 | 54 | 1012.3 |
| 20260901075209 | 69 | 220 | 2.0 | 10.0 | 0.00 | 0.00 | 0.00 | 54 | 1012.3 |
| 20260901074659 | 68 | 338 | 2.0 | 12.0 | 0.00 | 0.00 | 0.00 | 54 | 1012.4 |
| 20260901074158 | 68 | 43 | 2.0 | 12.0 | 0.00 | 0.00 | 0.00 | 55 | 1012.4 |
| 20260901073653 | 68 | 25 | 2.0 | 12.0 | 0.00 | 0.00 | 0.00 | 55 | 1012.5 |
| 20260901072518 | 68 | 339 | 3.0 | 9.0 | 0.00 | 0.00 | 0.00 | 55 | 1012.6 |
| 20260901072017 | 68 | 336 | 3.0 | 9.0 | 0.00 | 0.00 | 0.00 | 56 | 1012.5 |
| 20260901071521 | 68 | 318 | 2.0 | 9.0 | 0.00 | 0.00 | 0.00 | 56 | 1012.5 |
| 20260901071002 | 68 | 351 | 2.0 | 9.0 | 0.00 | 0.00 | 0.00 | 56 | 1012.4 |
| 20260901070511 | 68 | 334 | 3.0 | 9.0 | 0.00 | 0.00 | 0.00 | 56 | 1012.4 |
| 20260901070014 | 68 | 325 | 3.0 | 8.0 | 0.00 | 0.00 | 0.00 | 56 | 1012.5 |
| 20260901065517 | 68 | 354 | 3.0 | 8.0 | 0.00 | 0.00 | 0.00 | 56 | 1012.7 |
| 20260901065013 | 68 | 305 | 3.0 | 8.0 | 0.00 | 0.00 | 0.00 | 55 | 1012.7 |
| 20260901064521 | 69 | 340 | 2.0 | 9.0 | 0.00 | 0.00 | 0.00 | 55 | 1012.6 |
| 20260901062734 | 69 | 320 | 4.0 | 9.0 | 0.00 | 0.00 | 0.00 | 54 | 1012.4 |
| 20260901062236 | 69 | 38 | 4.0 | 9.0 | 0.00 | 0.00 | 0.00 | 53 | 1012.4 |
| 20260901061100 | 70 | 39 | 5.0 | 14.0 | 0.00 | 0.00 | 0.00 | 52 | 1012.3 |
| 20260901060607 | 70 | 338 | 5.0 | 14.0 | 0.00 | 0.00 | 0.00 | 52 | 1012.4 |
| 20260901055542 | 70 | 28 | 3.0 | 12.0 | 0.00 | 0.00 | 0.00 | 51 | 1012.4 |
| 20260901055027 | 70 | 341 | 3.0 | 10.0 | 0.00 | 0.00 | 0.00 | 51 | 1012.2 |
| 20260901054520 | 70 | 307 | 3.0 | 17.0 | 0.00 | 0.00 | 0.00 | 50 | 1012.2 |
| 20260901054014 | 70 | 353 | 5.0 | 17.0 | 0.00 | 0.00 | 0.00 | 50 | 1012.1 |
| 20260901053517 | 70 | 4 | 7.0 | 17.0 | 0.00 | 0.00 | 0.00 | 49 | 1012.1 |
| 20260901053002 | 70 | 348 | 6.0 | 17.0 | 0.00 | 0.00 | 0.00 | 50 | 1012.0 |
| 20260901052508 | 71 | 356 | 6.0 | 16.0 | 0.00 | 0.00 | 0.00 | 50 | 1012.0 |
| 20260901052004 | 71 | 17 | 6.0 | 16.0 | 0.00 | 0.00 | 0.00 | 50 | 1012.0 |
| 20260901051458 | 71 | 350 | 6.0 | 16.0 | 0.00 | 0.00 | 0.00 | 51 | 1011.9 |
| 20260901050938 | 71 | 286 | 6.0 | 15.0 | 0.00 | 0.00 | 0.00 | 51 | 1012.1 |
| 20260901050423 | 71 | 63 | 6.0 | 15.0 | 0.00 | 0.00 | 0.00 | 51 | 1012.0 |
| 20260901044002 | 72 | 293 | 7.0 | 16.0 | 0.00 | 0.00 | 0.00 | 51 | 1012.2 |
| 20260901043501 | 72 | 17 | 6.0 | 16.0 | 0.00 | 0.00 | 0.00 | 51 | 1012.4 |
| 20260901043010 | 72 | 292 | 5.0 | 16.0 | 0.00 | 0.00 | 0.00 | 51 | 1012.6 |
| 20260901042512 | 72 | 340 | 5.0 | 17.0 | 0.00 | 0.00 | 0.00 | 51 | 1012.8 |
| 20260901041954 | 72 | 30 | 5.0 | 17.0 | 0.00 | 0.00 | 0.00 | 51 | 1012.9 |
| 20260901041454 | 72 | 302 | 5.0 | 17.0 | 0.00 | 0.00 | 0.00 | 50 | 1013.0 |
| 20260901040311 | 72 | 22 | 5.0 | 16.0 | 0.00 | 0.00 | 0.00 | 50 | 1013.2 |
| 20260901035802 | 72 | 350 | 5.0 | 16.0 | 0.00 | 0.00 | 0.00 | 50 | 1013.3 |
| 20260901035254 | 72 | 345 | 5.0 | 15.0 | 0.00 | 0.00 | 0.00 | 50 | 1013.4 |
| 20260901034739 | 72 | 298 | 6.0 | 15.0 | 0.00 | 0.00 | 0.00 | 50 | 1013.6 |
| 20260901033611 | 72 | 295 | 5.0 | 15.0 | 0.00 | 0.00 | 0.00 | 50 | 1014.0 |
| 20260901033104 | 72 | 347 | 4.0 | 12.0 | 0.00 | 0.00 | 0.00 | 49 | 1014.1 |
| 20260901032556 | 72 | 347 | 4.0 | 19.0 | 0.00 | 0.00 | 0.00 | 49 | 1014.2 |
| 20260901032043 | 72 | 326 | 5.0 | 19.0 | 0.00 | 0.00 | 0.00 | 50 | 1014.3 |
| 20260901031549 | 72 | 261 | 6.0 | 19.0 | 0.00 | 0.00 | 0.00 | 49 | 1014.4 |
| 20260901031040 | 72 | 264 | 6.0 | 19.0 | 0.00 | 0.00 | 0.00 | 48 | 1014.5 |
| 20260901030528 | 72 | 336 | 6.0 | 17.0 | 0.00 | 0.00 | 0.00 | 48 | 1014.7 |
| 20260901030018 | 72 | 10 | 5.0 | 15.0 | 0.00 | 0.00 | 0.00 | 48 | 1014.7 |
| 20260901025505 | 72 | 7 | 5.0 | 12.0 | 0.00 | 0.00 | 0.00 | 49 | 1014.7 |
| 20260901024948 | 72 | 317 | 5.0 | 24.0 | 0.00 | 0.00 | 0.00 | 49 | 1014.8 |
| 20260901024441 | 72 | 345 | 5.0 | 24.0 | 0.00 | 0.00 | 0.00 | 48 | 1015.0 |
| 20260901023926 | 72 | 322 | 6.0 | 24.0 | 0.00 | 0.00 | 0.00 | 48 | 1015.1 |
| 20260901022808 | 72 | 329 | 7.0 | 21.0 | 0.00 | 0.00 | 0.00 | 49 | 1015.3 |
| 20260901022305 | 72 | 243 | 6.0 | 21.0 | 0.00 | 0.00 | 0.00 | 49 | 1015.4 |
| 20260901021808 | 72 | 318 | 6.0 | 21.0 | 0.00 | 0.00 | 0.00 | 50 | 1015.6 |
| 20260901021258 | 72 | 13 | 5.0 | 15.0 | 0.00 | 0.00 | 0.00 | 51 | 1015.6 |
| 20260901020740 | 71 | 354 | 4.0 | 11.0 | 0.00 | 0.00 | 0.00 | 52 | 1015.6 |
| 20260901020223 | 71 | 326 | 5.0 | 18.0 | 0.00 | 0.00 | 0.00 | 54 | 1015.8 |
| 20260901015037 | 70 | 320 | 6.0 | 18.0 | 0.00 | 0.00 | 0.00 | 55 | 1015.8 |
| 20260901014538 | 70 | 336 | 7.0 | 17.0 | 0.00 | 0.00 | 0.00 | 55 | 1015.9 |
| 20260901012156 | 68 | 322 | 8.0 | 19.0 | 0.00 | 0.00 | 0.00 | 58 | 1016.2 |
| 20260901011657 | 67 | 5 | 8.0 | 19.0 | 0.00 | 0.00 | 0.00 | 58 | 1016.4 |
| 20260901011202 | 67 | 37 | 7.0 | 17.0 | 0.00 | 0.00 | 0.00 | 59 | 1016.5 |
| 20260901010037 | 67 | 315 | 7.0 | 19.0 | 0.00 | 0.00 | 0.00 | 61 | 1016.5 |
| 20260901003653 | 65 | 30 | 9.0 | 26.0 | 0.00 | 0.00 | 0.00 | 63 | 1016.9 |
| 20260901003203 | 65 | 28 | 9.0 | 26.0 | 0.00 | 0.00 | 0.00 | 63 | 1017.0 |
| 20260901002646 | 65 | 6 | 10.0 | 26.0 | 0.00 | 0.00 | 0.00 | 63 | 1017.1 |
| 20260901001517 | 65 | 25 | 8.0 | 24.0 | 0.00 | 0.00 | 0.00 | 65 | 1017.6 |
| 20260901001010 | 65 | 355 | 9.0 | 24.0 | 0.00 | 0.00 | 0.00 | 64 | 1017.6 |
| 20260901000507 | 64 | 6 | 8.0 | 25.0 | 0.00 | 0.00 | 0.00 | 65 | 1017.6 |
| 20260901000017 | 64 | 302 | 7.0 | 25.0 | 0.00 | 0.00 | 0.00 | 66 | 1017.6 |
| 20260831235514 | 64 | 23 | 7.0 | 25.0 | 0.00 | 0.00 | 0.00 | 67 | 1017.7 |
| 20260831234401 | 63 | 298 | 8.0 | 20.0 | 0.00 | 0.00 | 0.00 | 69 | 1017.9 |
| 20260831233858 | 63 | 333 | 7.0 | 20.0 | 0.00 | 0.00 | 0.00 | 69 | 1017.9 |
| 20260831233340 | 63 | 75 | 6.0 | 20.0 | 0.00 | 0.00 | 0.00 | 70 | 1018.0 |
| 20260831232843 | 63 | 22 | 7.0 | 21.0 | 0.00 | 0.00 | 0.00 | 71 | 1018.2 |
| 20260831232345 | 62 | 319 | 8.0 | 21.0 | 0.00 | 0.00 | 0.00 | 72 | 1018.5 |
| 20260831231838 | 62 | 318 | 7.0 | 21.0 | 0.00 | 0.00 | 0.00 | 72 | 1018.6 |
| 20260831231324 | 62 | 6 | 6.0 | 21.0 | 0.00 | 0.00 | 0.00 | 72 | 1018.8 |
| 20260831230814 | 62 | 5 | 5.0 | 19.0 | 0.00 | 0.00 | 0.00 | 73 | 1019.0 |
| 20260831230309 | 62 | 20 | 5.0 | 19.0 | 0.00 | 0.00 | 0.00 | 74 | 1019.1 |
| 20260831225752 | 61 | 336 | 4.0 | 19.0 | 0.00 | 0.00 | 0.00 | 74 | 1019.4 |
| 20260831225244 | 61 | 63 | 4.0 | 19.0 | 0.00 | 0.00 | 0.00 | 75 | 1019.4 |
| 20260831224100 | 60 | 324 | 6.0 | 18.0 | 0.00 | 0.00 | 0.00 | 76 | 1019.6 |
| 20260831223603 | 60 | 23 | 5.0 | 16.0 | 0.00 | 0.00 | 0.00 | 77 | 1019.7 |
| 20260831223106 | 60 | 309 | 5.0 | 15.0 | 0.00 | 0.00 | 0.00 | 78 | 1019.8 |
| 20260831222552 | 59 | 325 | 4.0 | 15.0 | 0.00 | 0.00 | 0.00 | 79 | 1019.9 |
| 20260831222047 | 59 | 347 | 4.0 | 15.0 | 0.00 | 0.00 | 0.00 | 79 | 1019.9 |
| 20260831221539 | 59 | 353 | 4.0 | 13.0 | 0.00 | 0.00 | 0.00 | 80 | 1019.9 |
| 20260831221023 | 58 | 357 | 5.0 | 12.0 | 0.00 | 0.00 | 0.00 | 81 | 1019.9 |
| 20260831220521 | 58 | 336 | 4.0 | 12.0 | 0.00 | 0.00 | 0.00 | 82 | 1020.2 |
| 20260831220007 | 58 | 333 | 3.0 | 10.0 | 0.00 | 0.00 | 0.00 | 83 | 1020.1 |
| 20260831214855 | 57 | 350 | 3.0 | 10.0 | 0.00 | 0.00 | 0.00 | 84 | 1020.1 |
| 20260831213725 | 57 | 333 | 4.0 | 16.0 | 0.00 | 0.00 | 0.00 | 85 | 1020.1 |